Location: Unspecified
(0.0000°N, 0.0000°E)
Time: 13:53:18
(UTC+00:00)

Explorer 7 - All Passes

Search period start: 21 September 2017 00:00
Search period end: 01 October 2017 00:00
Orbit: 486 x 683 km, 50.3° (Epoch: 20 September)

Date Brightness Start Highest point End Pass type
(mag) Time Alt. Az. Time Alt. Az. Time Alt. Az.
21 Sep - 07:15:15 10° SSW 07:19:14 72° SE 07:23:00 10° NE daylight
21 Sep - 19:16:44 10° NW 19:21:23 77° SW 19:26:17 10° SSE visible
22 Sep - 07:21:02 10° SW 07:24:51 45° NW 07:28:30 10° NNE daylight
22 Sep - 17:43:42 10° NNE 17:46:37 17° NE 17:49:37 10° E daylight
22 Sep - 19:22:45 10° WNW 19:27:03 37° SW 19:31:33 10° SSE visible
23 Sep - 05:47:06 10° S 05:50:06 19° SE 05:52:59 10° E daylight
23 Sep - 07:27:31 10° WSW 07:30:27 20° NW 07:33:18 10° N daylight
23 Sep - 17:48:09 10° N 17:52:14 33° NE 17:56:31 10° ESE daylight
23 Sep - 19:29:28 10° W 19:32:46 19° SW 19:36:10 10° S visible
24 Sep - 05:51:53 10° SSW 05:55:48 43° SE 05:59:30 10° NE daylight
24 Sep - 17:53:20 10° NNW 17:57:51 69° NE 18:02:37 10° SE daylight
25 Sep - 05:57:19 10° SW 06:01:27 78° NW 06:05:19 10° NNE daylight
25 Sep - 16:22:33 10° NE 16:23:05 10° NE 16:23:37 10° ENE daylight
25 Sep - 17:59:02 10° NW 18:03:28 56° SW 18:08:12 10° SSE daylight
26 Sep - 04:24:35 10° SSE 04:26:35 13° SE 04:28:32 10° E visible
26 Sep - 06:03:22 10° WSW 06:07:03 32° NW 06:10:33 10° N daylight
26 Sep - 16:25:21 10° N 16:28:43 21° NE 16:32:14 10° ESE daylight
26 Sep - 18:05:17 10° WNW 18:09:09 27° SW 18:13:13 10° S visible
27 Sep - 04:28:41 10° S 04:32:19 27° SE 04:35:46 10° ENE visible
27 Sep - 06:10:17 10° W 06:12:39 15° NW 06:14:57 10° NNW daylight
27 Sep - 16:30:07 10° NNW 16:34:19 43° NE 16:38:46 10° SE daylight
27 Sep - 18:12:32 10° W 18:14:54 14° SW 18:17:19 10° SSW visible
28 Sep - 04:33:47 10° SSW 04:38:00 63° SE 04:41:56 10° NE visible
28 Sep - 16:35:31 10° NW 16:39:55 87° SW 16:44:38 10° SE daylight
29 Sep - 04:39:28 10° SW 04:43:37 54° NW 04:47:30 10° NNE visible
29 Sep - 15:03:05 10° NNE 15:05:12 13° NE 15:07:22 10° E daylight
29 Sep - 16:41:25 10° WNW 16:45:34 40° SW 16:49:59 10° SSE daylight
30 Sep - 03:05:42 10° S 03:08:47 19° SE 03:11:44 10° E visible
30 Sep - 04:45:45 10° WSW 04:49:13 24° NW 04:52:30 10° N visible
30 Sep - 15:07:09 10° N 15:10:48 27° NE 15:14:40 10° ESE daylight
30 Sep - 16:48:00 10° W 16:51:17 20° SW 16:54:42 10° S daylight
